Location: Catstown
(52.4386°N, 7.2633°W)
Time: 01:31:01
(UTC+00:00)

Cosmos 1092 Rocket - Pass Details

Date: 18 September 2020
Orbit: 955 x 994 km, 82.9° (Epoch: 30 October)

Event Time Altitude Azimuth Distance (km) Brightness Sun altitude
Rises 19:46:59 0° 352° (N) 3,647 7.4 -11.5°
Reaches altitude 10° 19:49:40 10° 360° (N) 2,698 6.6 -11.8°
Maximum altitude 19:55:28 42° 70° (ENE) 1,353 4.4 -12.7°
Enters shadow 20:00:15 15° 136° (SE) 2,356 5.5 -13.4°
